sat.trackr.live / text

‹ back to catalog

QIANFAN-57

NORAD 62787 · 2025-016C

PAYLOAD ACTIVE UNKNOWN

§ Identity

Operator
Country
PRC
Launch date
2025-01-23
Launch site
TAISC
Launch vehicle
Mass (kg)
RCS (m²)

External: N2YO · Heavens-Above · Gunter

§ Orbital elements

Epoch: 2026-05-25T03:14:23.011584Z

Period
106.59 min
Inclination
88.9738°
Eccentricity
0.0003039
Mean motion
13.51012489 rev/d
Perigee alt
1,066.3 km
Apogee alt
1,070.8 km
Semi-major
7,446.7 km
B*
1.5132e-4
RAAN
86.2618°
Arg perigee
68.5945°
Mean anomaly
291.5530°
Rev number
6,926

§ Raw data

QIANFAN-571 62787U 25016C   26145.13498856  .00000110  00000+0  15132-3 0  99922 62787  88.9738  86.2618 0003039  68.5945 291.5530 13.51012489 69260

JSON: /api/v1/satellites/62787 · /tle

For live sub-satellite position, see the globe view (requires WebGL).

§ Visibility from observer

Set your observer location to see the next 7 days of passes ≥ 10°. The values pass through the URL so the page stays shareable.

No JS? Fill the form by hand. The geolocation button needs JavaScript.